period_start,C,m1,H,J0,J1,J2,J3,J4,J5,JA,JB,JC,JD,JJ,JK,JN,#
2014-09-23 00:01:29,0.01,0.79,0.00,22.51,26.73,29.21,9.52,40.42,1004.90,2040.01,3074.93,3120.04,3348.81,499.86,491.85,36.49,0000 0000 0000 0000 000000
2014-09-23 00:06:30,0.01,0.79,0.00,22.50,26.74,29.22,9.50,40.23,1004.90,2040.00,3074.43,3120.01,3348.29,499.76,491.53,36.53,0000 0000 0000 0000 000000
2014-09-23 00:11:31,0.01,0.79,0.00,22.49,26.75,29.23,9.45,40.12,1004.90,2040.01,3074.22,3120.00,3348.08,499.69,491.60,36.57,0000 0000 0000 0000 000000
2014-09-23 00:16:33,0.00,0.79,0.00,22.48,26.75,29.23,9.59,40.20,1004.90,2040.00,3074.04,3120.00,3348.00,500.07,491.93,36.61,0000 0000 0000 0000 000000
2014-09-23 00:21:34,0.00,0.79,0.00,22.52,26.75,29.24,9.46,40.09,1004.90,2040.00,3074.04,3119.97,3348.00,499.55,491.33,36.66,0000 0000 0000 0000 000000
2014-09-23 00:26:35,0.00,0.79,0.00,22.53,26.75,29.24,9.52,40.13,1004.90,2040.00,3074.04,3119.94,3348.00,500.03,491.81,36.70,0000 0000 0000 0000 000000
2014-09-23 00:31:36,0.02,0.79,0.00,22.52,26.75,29.25,9.49,40.16,1004.90,2040.00,3073.99,3119.60,3347.99,499.74,491.58,36.74,0000 0000 0000 0000 000000
2014-09-23 00:36:37,0.00,0.79,0.00,22.54,26.75,29.25,9.58,40.22,1004.90,2040.00,3074.00,3119.46,3347.99,500.12,491.77,36.78,0000 0000 0000 0000 000000
2014-09-23 00:41:38,0.00,0.80,0.00,22.54,26.75,29.25,9.49,40.13,1004.91,2040.00,3073.99,3119.18,3347.97,500.34,492.00,36.82,0000 0000 0000 0000 000000
2014-09-23 00:46:39,0.00,0.80,0.00,22.56,26.75,29.26,9.32,40.24,1004.90,2040.00,3073.97,3119.05,3347.92,499.43,491.21,36.86,0000 0000 0000 0000 000000
2014-09-23 00:51:40,0.01,0.80,0.00,22.51,26.75,29.25,9.51,40.28,1004.91,2040.00,3073.79,3119.00,3347.61,500.12,491.76,36.91,0000 0000 0000 0000 000000
2014-09-23 00:56:41,-0.00,0.80,0.00,22.51,26.75,29.25,9.48,40.13,1004.91,2040.00,3073.95,3119.01,3347.81,499.90,491.56,36.95,0000 0000 0000 0000 000000
2014-09-23 01:01:42,0.02,0.80,0.00,22.51,26.75,29.27,9.55,40.25,1004.92,2040.00,3073.70,3119.00,3347.36,499.93,491.70,36.99,0000 0000 0000 0000 000000
2014-09-23 01:06:43,0.00,0.80,0.00,22.52,26.75,29.26,9.57,40.14,1004.92,2040.00,3073.57,3118.99,3347.10,500.14,491.81,37.03,0000 0000 0000 0000 000000
2014-09-23 01:11:45,0.01,0.80,0.00,22.52,26.76,29.28,9.46,40.17,1004.92,2040.00,3073.33,3118.97,3347.03,499.90,491.66,37.07,0000 0000 0000 0000 000000
2014-09-23 01:16:46,0.01,0.80,0.00,22.55,26.77,29.28,9.47,40.19,1004.93,2040.00,3073.02,3118.86,3347.00,499.90,491.69,37.11,0000 0000 0000 0000 000000
2014-09-23 01:21:48,0.01,0.80,0.00,22.58,26.77,29.27,9.43,40.05,1004.94,2040.00,3073.00,3118.60,3347.00,499.60,491.23,37.15,0000 0000 0000 0000 000000
2014-09-23 01:26:49,0.00,0.80,0.00,22.60,26.77,29.29,9.51,40.00,1004.94,2039.99,3072.99,3118.26,3346.99,499.99,491.61,37.20,0000 0000 0000 0000 000000
2014-09-23 01:31:50,0.00,0.80,0.00,22.58,26.77,29.29,9.45,40.10,1004.93,2039.99,3072.97,3118.05,3346.96,500.39,491.93,37.24,0000 0000 0000 0000 000000
2014-09-23 01:36:51,0.01,0.80,0.00,22.59,26.77,29.31,9.46,40.13,1004.92,2039.99,3072.83,3118.01,3346.77,499.91,491.64,37.28,0000 0000 0000 0000 000000
2014-09-23 01:41:53,0.01,0.80,0.00,22.59,26.77,29.30,9.46,40.25,1004.96,2039.98,3072.70,3118.00,3346.43,499.93,491.66,37.32,0000 0000 0000 0000 000000
2014-09-23 01:46:54,0.01,0.80,0.00,22.59,26.77,29.30,9.45,40.21,1005.14,2039.98,3072.34,3118.00,3346.11,499.85,491.56,37.36,0000 0000 0000 0000 000000
2014-09-23 01:51:55,0.00,0.80,0.00,22.60,26.77,29.31,9.44,40.15,1005.25,2039.98,3072.01,3117.96,3346.00,499.84,491.63,37.40,0000 0000 0000 0000 000000
2014-09-23 01:56:56,0.01,0.80,0.00,22.62,26.77,29.32,9.49,40.23,1005.21,2039.98,3071.93,3117.72,3345.98,500.27,492.00,37.45,0000 0000 0000 0000 000000
2014-09-23 02:01:57,0.02,0.80,0.00,22.66,26.77,29.32,9.50,40.25,1005.15,2039.97,3071.75,3117.12,3345.90,500.22,491.69,37.49,0000 0000 0000 0000 000000
2014-09-23 02:06:59,0.02,0.80,0.00,22.69,26.77,29.32,9.51,40.23,1005.22,2039.97,3071.18,3117.02,3345.42,500.26,491.80,37.53,0000 0000 0000 0000 000000
2014-09-23 02:12:00,0.00,0.80,0.00,22.71,26.77,29.32,9.51,40.13,1005.21,2039.99,3071.02,3117.00,3345.13,500.00,491.54,37.57,0000 0000 0000 0000 000000
2014-09-23 02:17:01,-0.00,0.80,0.00,22.68,26.77,29.33,9.49,40.23,1005.28,2039.97,3071.01,3117.00,3345.08,499.83,491.56,37.61,0000 0000 0000 0000 000000
2014-09-23 02:22:02,0.00,0.80,0.00,22.68,26.77,29.32,9.42,40.03,1005.30,2039.97,3071.01,3117.00,3345.05,499.80,491.46,37.65,0000 0000 0000 0000 000000
2014-09-23 02:27:03,-0.00,0.80,0.00,22.71,26.77,29.35,9.49,40.16,1005.28,2039.97,3071.00,3116.99,3345.00,499.96,491.43,37.69,0000 0000 0000 0000 000000
2014-09-23 02:32:04,0.00,0.80,0.00,22.72,26.77,29.36,9.49,40.19,1005.31,2039.96,3070.93,3116.98,3345.00,499.95,491.62,37.74,0000 0000 0000 0000 000000
2014-09-23 02:37:06,0.02,0.80,0.00,22.72,26.77,29.36,9.52,40.16,1005.38,2039.99,3070.43,3116.86,3344.95,499.85,491.51,37.78,0000 0000 0000 0000 000000
2014-09-23 02:42:07,0.02,0.80,0.00,22.71,26.77,29.36,9.52,40.10,1005.39,2039.97,3070.03,3116.61,3344.54,500.33,491.92,37.82,0000 0000 0000 0000 000000
2014-09-23 02:47:08,0.02,0.81,0.00,22.70,26.77,29.34,9.46,39.94,1005.39,2039.99,3070.00,3116.33,3344.18,499.96,491.81,37.86,0000 0000 0000 0000 000000
2014-09-23 02:52:09,0.01,0.81,0.00,22.70,26.77,29.35,9.56,40.09,1005.39,2039.98,3070.00,3116.23,3344.06,500.76,492.32,37.90,0000 0000 0000 0000 000000
2014-09-23 02:57:10,0.01,0.81,0.00,22.73,26.77,29.33,9.52,40.11,1005.39,2039.99,3069.91,3116.03,3344.00,499.84,491.74,37.94,0000 0000 0000 0000 000000
2014-09-23 03:02:11,0.00,0.81,0.00,22.75,26.77,29.32,9.53,39.98,1005.39,2039.99,3069.86,3116.02,3344.00,500.00,491.62,37.99,0000 0000 0000 0000 000000
2014-09-23 03:07:12,-0.00,0.81,0.00,22.74,26.77,29.31,9.47,40.05,1005.39,2039.99,3069.83,3116.02,3344.00,499.95,491.64,38.03,0000 0000 0000 0000 000000
2014-09-23 03:12:14,0.00,0.81,0.00,22.75,26.77,29.29,9.47,40.23,1005.39,2039.99,3069.72,3116.01,3344.00,499.67,491.33,38.07,0000 0000 0000 0000 000000
2014-09-23 03:17:15,0.01,0.81,0.00,22.74,26.77,29.29,9.43,40.16,1005.39,2039.99,3069.14,3116.00,3343.98,499.97,491.73,38.11,0000 0000 0000 0000 000000
2014-09-23 03:22:16,0.00,0.81,0.00,22.72,26.77,29.29,9.59,40.16,1005.39,2039.99,3069.05,3116.00,3343.98,500.33,491.85,38.15,0000 0000 0000 0000 000000
2014-09-23 03:27:17,0.00,0.81,0.00,22.71,26.75,29.28,9.54,40.16,1005.39,2039.99,3069.03,3116.00,3343.95,500.20,491.81,38.19,0000 0000 0000 0000 000000
2014-09-23 03:32:18,0.00,0.81,0.00,22.71,26.75,29.29,9.45,40.14,1005.39,2039.99,3069.02,3116.00,3343.95,499.65,491.28,38.24,0000 0000 0000 0000 000000
2014-09-23 03:37:19,0.00,0.81,0.00,22.75,26.75,29.28,9.57,40.05,1005.39,2039.99,3069.02,3116.00,3343.95,499.72,491.40,38.28,0000 0000 0000 0000 000000
2014-09-23 03:42:20,0.00,0.81,0.00,22.73,26.75,29.27,9.46,39.96,1005.39,2039.99,3069.00,3115.99,3343.81,499.59,491.21,38.32,0000 0000 0000 0000 000000
2014-09-23 03:47:21,0.00,0.81,0.00,22.73,26.75,29.28,9.47,40.08,1005.39,2039.99,3068.99,3115.99,3343.67,500.30,491.95,38.36,0000 0000 0000 0000 000000
2014-09-23 03:52:22,0.00,0.81,0.00,22.76,26.75,29.28,9.44,39.98,1005.40,2039.99,3068.99,3115.98,3343.62,499.84,491.64,38.40,0000 0000 0000 0000 000000
2014-09-23 03:57:24,0.01,0.81,0.00,22.76,26.75,29.27,9.50,40.08,1005.40,2039.99,3068.98,3115.97,3343.26,500.13,491.64,38.44,0000 0000 0000 0000 000000
2014-09-23 04:02:25,0.00,0.81,0.00,22.75,26.74,29.26,9.52,40.05,1005.42,2039.99,3068.94,3115.98,3343.10,500.11,491.61,38.49,0000 0000 0000 0000 000000
2014-09-23 04:07:26,0.00,0.81,0.00,22.75,26.74,29.26,9.45,40.05,1005.42,2039.99,3068.89,3115.96,3343.06,500.11,491.76,38.53,0000 0000 0000 0000 000000
2014-09-23 04:12:27,0.01,0.81,0.00,22.73,26.73,29.27,9.47,39.97,1005.50,2040.00,3068.60,3115.92,3343.02,500.04,491.84,38.57,0000 0000 0000 0000 000000
2014-09-23 04:17:28,0.00,0.81,0.00,22.73,26.72,29.27,9.46,40.16,1005.49,2040.00,3068.47,3115.90,3343.01,499.98,491.73,38.61,0000 0000 0000 0000 000000
2014-09-23 04:22:29,0.00,0.81,0.00,22.74,26.72,29.26,9.53,39.90,1005.48,2040.00,3068.53,3115.88,3343.01,500.11,491.68,38.65,0000 0000 0000 0000 000000
2014-09-23 04:27:30,-0.01,0.81,0.00,22.75,26.72,29.25,9.49,40.16,1005.42,2040.00,3068.66,3115.82,3343.02,500.04,491.59,38.69,0000 0000 0000 0000 000000
2014-09-23 04:32:32,0.00,0.81,0.00,22.76,26.72,29.25,9.53,40.03,1005.42,2040.00,3068.85,3115.83,3343.03,500.02,491.64,38.73,0000 0000 0000 0000 000000
2014-09-23 04:37:33,0.02,0.81,0.00,22.74,26.72,29.25,9.50,40.16,1005.41,2040.00,3068.26,3115.49,3343.00,499.70,491.32,38.78,0000 0000 0000 0000 000000
2014-09-23 04:42:34,0.01,0.81,0.00,22.73,26.72,29.25,9.51,40.12,1005.47,2040.00,3068.19,3115.20,3343.00,499.99,491.82,38.82,0000 0000 0000 0000 000000
2014-09-23 04:47:35,0.00,0.81,0.00,22.73,26.72,29.25,9.51,40.12,1005.55,2040.00,3068.10,3115.08,3343.00,499.77,491.57,38.86,0000 0000 0000 0000 000000
2014-09-23 04:52:36,0.00,0.81,0.00,22.73,26.72,29.26,9.55,40.32,1005.58,2040.00,3068.05,3115.09,3342.99,500.30,491.97,38.90,0000 0000 0000 0000 000000
2014-09-23 04:57:37,0.00,0.81,0.00,22.73,26.71,29.26,9.40,40.33,1005.58,2040.01,3068.02,3115.08,3342.99,499.68,491.54,38.94,0000 0000 0000 0000 000000
2014-09-23 05:02:38,0.00,0.81,0.00,22.73,26.70,29.25,9.51,40.25,1005.56,2040.00,3068.08,3115.07,3342.99,500.08,491.81,38.98,0000 0000 0000 0000 000000
2014-09-23 05:07:40,-0.00,0.81,0.00,22.73,26.70,29.25,9.53,40.11,1005.52,2040.01,3068.16,3115.19,3343.00,500.06,491.89,39.03,0000 0000 0000 0000 000000
2014-09-23 05:12:40,0.01,0.81,0.00,22.73,26.70,29.24,9.55,40.14,1005.45,2040.01,3068.01,3115.04,3343.00,500.24,491.98,39.07,0000 0000 0000 0000 000000
2014-09-23 05:17:41,0.00,0.81,0.00,22.73,26.70,29.25,9.49,40.17,1005.43,2040.00,3068.00,3115.01,3342.97,499.68,491.43,39.11,0000 0000 0000 0000 000000
2014-09-23 05:22:43,-0.00,0.81,0.00,22.77,26.70,29.25,9.46,40.12,1005.50,2040.00,3068.07,3115.01,3342.98,499.92,491.66,39.15,0000 0000 0000 0000 000000
2014-09-23 05:27:44,0.00,0.81,0.00,22.76,26.70,29.24,9.41,40.20,1005.54,2040.00,3068.02,3115.00,3342.96,500.01,491.57,39.19,0000 0000 0000 0000 000000
2014-09-23 05:32:45,0.00,0.81,0.00,22.77,26.70,29.25,9.48,40.23,1005.54,2040.00,3068.01,3115.00,3342.92,500.06,491.67,39.23,0000 0000 0000 0000 000000
2014-09-23 05:37:46,-0.00,0.81,0.00,22.76,26.70,29.25,9.51,40.27,1005.59,2040.00,3068.00,3115.00,3342.89,500.04,491.66,39.27,0000 0000 0000 0000 000000
2014-09-23 05:42:48,0.00,0.81,0.00,22.73,26.69,29.26,9.52,40.13,1005.64,2040.00,3067.99,3115.00,3342.92,500.35,492.21,39.32,0000 0000 0000 0000 000000
2014-09-23 05:47:49,0.00,0.81,0.00,22.74,26.68,29.25,9.51,40.20,1005.76,2040.01,3067.97,3115.00,3342.75,500.03,491.86,39.36,0000 0000 0000 0000 000000
2014-09-23 05:52:50,-0.00,0.81,0.00,22.76,26.67,29.25,9.49,40.22,1005.82,2040.01,3067.99,3115.00,3342.92,500.14,492.15,39.40,0000 0000 0000 0000 000000
2014-09-23 05:57:51,0.00,0.81,0.00,22.75,26.67,29.24,9.44,40.20,1005.86,2040.01,3067.96,3115.00,3342.86,499.90,491.78,39.44,0000 0000 0000 0000 000000
2014-09-23 06:02:52,0.01,0.81,0.00,22.74,26.67,29.24,9.50,40.21,1005.87,2040.01,3067.92,3115.00,3342.63,499.98,491.88,39.48,0000 0000 0000 0000 000000
2014-09-23 06:07:53,0.01,0.81,0.00,22.76,26.67,29.24,9.43,40.14,1005.87,2040.01,3067.60,3114.99,3342.22,499.81,491.76,39.52,0000 0000 0000 0000 000000
2014-09-23 06:12:54,0.01,0.81,0.00,22.77,26.67,29.25,9.49,40.04,1005.87,2040.01,3067.08,3114.98,3342.03,499.77,491.51,39.57,0000 0000 0000 0000 000000
2014-09-23 06:17:55,0.00,0.81,0.00,22.75,26.67,29.24,9.53,40.19,1005.87,2040.02,3067.11,3114.99,3342.05,500.13,491.92,39.61,0000 0000 0000 0000 000000
2014-09-23 06:22:56,-0.00,0.81,0.00,22.75,26.67,29.24,9.52,40.07,1005.87,2040.02,3067.14,3114.98,3342.04,500.07,491.93,39.65,0000 0000 0000 0000 000000
2014-09-23 06:27:57,-0.00,0.81,0.00,22.75,26.67,29.24,9.41,40.13,1005.88,2040.02,3067.02,3114.96,3342.02,500.20,492.13,39.69,0000 0000 0000 0000 000000
2014-09-23 06:32:58,0.00,0.81,0.00,22.74,26.67,29.23,9.43,40.01,1005.89,2040.02,3067.01,3114.92,3342.00,499.84,491.63,39.73,0000 0000 0000 0000 000000
2014-09-23 06:37:59,0.00,0.81,0.00,22.75,26.67,29.21,9.49,40.04,1005.94,2040.03,3067.01,3114.93,3342.00,499.91,491.85,39.77,0000 0000 0000 0000 000000
2014-09-23 06:43:00,0.00,0.81,0.00,22.73,26.67,29.20,9.47,40.07,1005.99,2040.07,3067.00,3114.94,3342.00,499.81,491.77,39.82,0000 0000 0000 0000 000000
2014-09-23 06:48:02,-0.00,0.81,0.00,22.73,26.66,29.20,9.48,39.89,1006.02,2040.06,3067.07,3114.88,3342.02,499.61,491.48,39.86,0000 0000 0000 0000 000000
2014-09-23 06:53:02,0.00,0.81,0.00,22.75,26.66,29.19,9.38,39.98,1006.00,2040.06,3067.01,3114.81,3342.00,499.83,491.80,39.90,0000 0000 0000 0000 000000
2014-09-23 06:58:04,-0.00,0.81,0.00,22.73,26.65,29.19,9.42,40.02,1005.99,2040.03,3067.01,3114.70,3342.00,499.89,491.89,39.94,0000 0000 0000 0000 000000
2014-09-23 07:03:05,0.01,0.81,0.00,22.73,26.65,29.18,9.45,40.13,1006.08,2040.04,3067.00,3114.53,3342.00,499.64,491.76,39.98,0000 0000 0000 0000 000000
2014-09-23 07:08:06,-0.00,0.81,0.00,22.75,26.65,29.18,9.44,40.10,1006.22,2040.04,3067.00,3114.51,3342.00,499.35,491.39,40.02,0000 0000 0000 0000 000000
2014-09-23 07:13:08,0.01,0.81,0.00,22.75,26.65,29.19,9.43,39.98,1006.34,2040.09,3067.00,3114.36,3342.00,499.92,492.06,40.06,0000 0000 0000 0000 000000
2014-09-23 07:18:09,0.00,0.81,0.00,22.75,26.65,29.18,9.61,40.03,1006.36,2040.18,3067.00,3114.54,3342.00,500.13,492.23,40.11,0000 0000 0000 0000 000000
2014-09-23 07:23:10,0.01,0.81,0.00,22.76,26.65,29.17,9.46,40.02,1006.36,2040.17,3067.00,3114.36,3341.99,499.88,491.94,40.15,0000 0000 0000 0000 000000
2014-09-23 07:28:11,-0.00,0.81,0.00,22.77,26.65,29.16,9.43,39.97,1006.36,2040.07,3067.00,3114.10,3341.99,499.72,491.80,40.19,0000 0000 0000 0000 000000
2014-09-23 07:33:12,-0.00,0.81,0.00,22.75,26.65,29.16,9.44,39.85,1006.36,2040.07,3066.99,3114.11,3341.99,499.58,491.73,40.23,0000 0000 0000 0000 000000
2014-09-23 07:38:13,0.01,0.81,0.00,22.73,26.65,29.17,9.48,39.88,1006.37,2040.08,3066.97,3114.09,3341.98,500.05,492.31,40.27,0000 0000 0000 0000 000000
2014-09-23 07:43:14,0.01,0.81,0.00,22.71,26.64,29.17,9.53,40.04,1006.38,2040.16,3066.91,3114.06,3341.97,500.34,492.51,40.31,0000 0000 0000 0000 000000
2014-09-23 07:48:15,0.01,0.81,0.00,22.70,26.63,29.18,9.50,40.07,1006.39,2040.27,3066.74,3114.04,3341.95,500.02,492.11,40.36,0000 0000 0000 0000 000000
2014-09-23 07:53:16,0.04,0.82,0.00,22.69,26.63,29.17,9.45,39.90,1006.45,2040.50,3066.34,3114.03,3341.78,500.24,492.54,40.40,0000 0000 0000 0000 000000
2014-09-23 07:58:18,-0.00,0.82,0.00,22.70,26.63,29.17,9.52,40.06,1006.47,2040.41,3066.10,3114.02,3341.57,500.24,492.38,40.44,0000 0000 0000 0000 000000
2014-09-23 08:03:19,0.00,0.82,0.00,22.71,26.63,29.16,9.46,40.15,1006.50,2040.44,3066.11,3114.01,3341.53,500.14,492.45,40.48,0000 0000 0000 0000 000000
2014-09-23 08:08:20,0.00,0.82,0.00,22.72,26.63,29.15,9.51,40.01,1006.59,2040.48,3066.09,3114.01,3341.51,500.18,492.27,40.52,0000 0000 0000 0000 000000
2014-09-23 08:13:21,0.02,0.82,0.00,22.70,26.62,29.15,9.61,40.11,1006.57,2040.56,3066.03,3114.01,3341.32,500.11,492.40,40.56,0000 0000 0000 0000 000000
2014-09-23 08:18:22,-0.00,0.82,0.00,22.70,26.62,29.14,9.52,40.10,1006.54,2040.58,3066.06,3114.01,3341.37,499.95,492.26,40.61,0000 0000 0000 0000 000000
2014-09-23 08:23:23,-0.02,0.82,0.00,22.72,26.63,29.13,9.53,40.06,1006.60,2040.45,3066.01,3114.00,3341.17,500.31,492.46,40.65,0000 0000 0000 0000 000000
2014-09-23 08:28:24,-0.01,0.82,0.00,22.74,26.63,29.14,9.41,40.04,1006.68,2040.28,3066.01,3113.98,3341.03,499.95,492.24,40.69,0000 0000 0000 0000 000000
2014-09-23 08:33:26,0.00,0.82,0.00,22.72,26.63,29.13,9.49,40.18,1006.71,2040.31,3065.99,3113.97,3341.01,500.07,492.39,40.73,0000 0000 0000 0000 000000
2014-09-23 08:38:27,0.03,0.82,0.00,22.74,26.63,29.13,9.42,40.10,1006.80,2040.45,3065.98,3113.97,3341.00,500.17,492.38,40.77,0000 0000 0000 0000 000000
2014-09-23 08:43:28,-0.02,0.82,0.00,22.73,26.63,29.12,9.48,40.02,1006.83,2040.47,3065.84,3113.90,3340.99,500.09,492.38,40.81,0000 0000 0000 0000 000000
2014-09-23 08:48:29,0.01,0.82,0.00,22.73,26.64,29.13,9.48,40.02,1006.85,2040.51,3065.56,3113.60,3340.98,499.80,492.35,40.86,0000 0000 0000 0000 000000
2014-09-23 08:53:30,0.03,0.82,0.00,22.71,26.64,29.12,9.40,40.08,1006.85,2040.45,3065.12,3113.21,3340.89,499.86,492.44,40.90,0000 0000 0000 0000 000000
2014-09-23 08:58:31,-0.02,0.82,0.00,22.74,26.65,29.12,9.56,39.99,1006.85,2040.22,3065.00,3113.03,3340.31,499.98,492.24,40.94,0000 0000 0000 0000 000000
2014-09-23 09:03:33,0.00,0.82,0.00,22.73,26.65,29.12,9.46,39.99,1006.85,2040.18,3064.99,3113.00,3340.07,499.84,492.25,40.98,0000 0000 0000 0000 000000
2014-09-23 09:08:34,-0.01,0.82,0.00,22.73,26.65,29.13,9.46,40.04,1006.86,2040.15,3064.96,3112.99,3340.00,499.77,492.10,41.02,0000 0000 0000 0000 000000
2014-09-23 09:13:35,0.01,0.82,0.00,22.72,26.65,29.13,9.51,40.11,1006.87,2040.10,3064.71,3112.99,3340.00,499.87,492.32,41.06,0000 0000 0000 0000 000000
2014-09-23 09:18:36,0.02,0.82,0.00,22.72,26.65,29.13,9.45,39.95,1006.88,2040.15,3064.30,3112.97,3340.00,499.91,492.44,41.10,0000 0000 0000 0000 000000
2014-09-23 09:23:37,-0.00,0.82,0.00,22.69,26.65,29.14,9.49,40.14,1006.91,2040.07,3064.04,3112.76,3339.97,500.07,492.53,41.15,0000 0000 0000 0000 000000
2014-09-23 09:28:39,0.01,0.82,0.00,22.67,26.65,29.14,9.45,40.02,1006.97,2040.07,3064.00,3112.42,3339.87,499.61,492.10,41.19,0000 0000 0000 0000 000000
2014-09-23 09:33:40,0.02,0.82,0.00,22.68,26.65,29.16,9.42,40.09,1007.12,2040.07,3064.00,3112.13,3339.37,499.78,492.48,41.23,0000 0000 0000 0000 000000
2014-09-23 09:38:41,0.01,0.82,0.00,22.69,26.65,29.16,9.52,40.15,1007.23,2040.07,3063.98,3112.03,3339.05,500.08,492.61,41.27,0000 0000 0000 0000 000000
2014-09-23 09:43:42,0.01,0.82,0.00,22.69,26.65,29.16,9.46,40.08,1007.27,2040.14,3063.92,3112.02,3339.01,499.61,492.37,41.31,0000 0000 0000 0000 000000
2014-09-23 09:48:43,0.00,0.82,0.00,22.70,26.65,29.16,9.47,40.02,1007.31,2040.07,3063.49,3112.00,3339.00,499.73,492.40,41.35,0000 0000 0000 0000 000000
2014-09-23 09:53:44,0.00,0.82,0.00,22.69,26.65,29.16,9.47,39.88,1007.29,2040.06,3063.11,3112.00,3339.00,499.68,492.40,41.39,0000 0000 0000 0000 000000
2014-09-23 09:58:45,0.00,0.82,0.00,22.70,26.65,29.16,9.47,39.88,1007.31,2040.05,3063.03,3111.99,3338.98,499.78,492.37,41.44,0000 0000 0000 0000 000000
2014-09-23 10:03:46,0.00,0.82,0.00,22.69,26.65,29.17,9.62,40.02,1007.32,2040.05,3063.00,3111.98,3338.92,500.48,493.04,41.48,0000 0000 0000 0000 000000
2014-09-23 10:08:48,-0.00,0.82,0.00,22.70,26.65,29.15,9.45,39.97,1007.32,2040.04,3062.99,3111.97,3338.91,499.85,492.53,41.52,0000 0000 0000 0000 000000
2014-09-23 10:13:49,0.01,0.82,0.00,22.68,26.65,29.17,9.49,40.04,1007.03,2040.06,3062.97,3111.90,3338.70,500.05,492.52,41.56,0000 0000 0000 0000 000000
2014-09-23 10:18:50,0.02,0.82,0.00,22.67,26.65,29.16,9.62,39.97,1006.90,2040.06,3062.81,3111.68,3338.15,500.73,493.25,41.60,0000 0000 0000 0000 000000
2014-09-23 10:23:51,0.02,0.82,0.00,22.67,26.65,29.18,9.43,39.86,1006.87,2040.04,3062.38,3111.22,3338.04,499.86,492.35,41.64,0000 0000 0000 0000 000000
2014-09-23 10:28:52,0.00,0.82,0.00,22.66,26.65,29.18,9.39,40.04,1006.87,2040.03,3062.05,3111.04,3338.00,500.07,492.49,41.69,0000 0000 0000 0000 000000
2014-09-23 10:33:53,-0.00,0.82,0.00,22.68,26.65,29.18,9.38,40.12,1006.88,2040.01,3062.01,3111.01,3337.99,499.28,491.87,41.73,0000 0000 0000 0000 000000
2014-09-23 10:38:55,-0.00,0.82,0.00,22.68,26.65,29.16,9.50,39.89,1006.92,2040.02,3062.01,3111.02,3337.99,500.42,492.73,41.77,0000 0000 0000 0000 000000
2014-09-23 10:43:56,0.00,0.83,0.00,22.66,26.65,29.17,9.51,40.00,1006.96,2040.03,3062.01,3111.01,3337.99,500.09,492.67,41.81,0000 0000 0000 0000 000000
2014-09-23 10:48:57,0.00,0.82,0.00,22.65,26.65,29.17,9.52,39.98,1007.00,2040.02,3062.00,3111.00,3337.99,500.18,492.98,41.85,0000 0000 0000 0000 000000
2014-09-23 10:53:58,0.01,0.82,0.00,22.67,26.65,29.17,9.47,40.03,1006.99,2040.06,3062.00,3111.00,3337.99,499.94,492.48,41.89,0000 0000 0000 0000 000000
2014-09-23 10:59:00,-0.00,0.83,0.00,22.67,26.65,29.17,9.50,40.01,1007.12,2040.07,3062.00,3111.00,3337.97,500.38,492.84,41.94,0000 0000 0000 0000 000000
2014-09-23 11:04:01,-0.00,0.82,0.00,22.67,26.65,29.18,9.54,39.88,1007.15,2040.02,3061.99,3111.00,3337.95,499.99,492.68,41.98,0000 0000 0000 0000 000000
2014-09-23 11:09:02,0.01,0.83,0.00,22.68,26.65,29.17,9.45,39.95,1007.15,2040.01,3061.91,3110.97,3337.76,500.10,492.57,42.02,0000 0000 0000 0000 000000
2014-09-23 11:14:03,0.02,0.83,0.00,22.68,26.65,29.17,9.49,40.07,1007.10,2040.00,3061.45,3110.89,3337.21,499.93,492.56,42.06,0000 0000 0000 0000 000000
2014-09-23 11:19:04,0.01,0.83,0.00,22.67,26.65,29.17,9.55,40.08,1007.06,2040.01,3061.05,3110.73,3337.04,500.08,492.67,42.10,0000 0000 0000 0000 000000
2014-09-23 11:24:06,0.01,0.83,0.00,22.64,26.65,29.16,9.64,40.13,1006.94,2040.01,3061.01,3110.43,3337.01,500.68,493.15,42.14,0000 0000 0000 0000 000000
2014-09-23 11:29:07,0.01,0.83,0.00,22.64,26.65,29.16,9.57,40.00,1006.90,2040.02,3061.00,3110.19,3337.00,500.39,493.01,42.19,0000 0000 0000 0000 000000
2014-09-23 11:34:08,0.00,0.83,0.00,22.65,26.65,29.16,9.41,40.00,1006.89,2040.02,3061.00,3110.12,3337.00,499.71,492.26,42.23,0000 0000 0000 0000 000000
2014-09-23 11:39:09,0.00,0.83,0.00,22.64,26.65,29.15,9.51,39.98,1007.00,2040.02,3060.99,3110.04,3337.00,500.08,492.52,42.27,0000 0000 0000 0000 000000
2014-09-23 11:44:10,0.00,0.83,0.00,22.64,26.65,29.16,9.46,39.84,1007.25,2040.01,3060.93,3110.01,3336.99,499.91,492.56,42.31,0000 0000 0000 0000 000000
2014-09-23 11:49:11,0.00,0.83,0.00,22.66,26.65,29.16,9.47,39.95,1007.32,2040.02,3060.93,3110.00,3336.98,499.89,492.56,42.35,0000 0000 0000 0000 000000
2014-09-23 11:54:12,-0.00,0.83,0.00,22.64,26.65,29.17,9.65,39.92,1007.34,2040.01,3060.77,3110.00,3336.97,500.59,493.37,42.39,0000 0000 0000 0000 000000
2014-09-23 11:59:13,0.01,0.83,0.00,22.62,26.65,29.18,9.53,39.98,1007.34,2040.01,3060.18,3110.00,3336.72,499.69,492.70,42.43,0000 0000 0000 0000 000000
2014-09-23 12:04:14,0.01,0.83,0.00,22.62,26.65,29.18,9.45,39.81,1007.34,2040.03,3060.03,3109.99,3336.39,499.74,492.39,42.48,0000 0000 0000 0000 000000
2014-09-23 12:09:16,0.00,0.83,0.00,22.65,26.65,29.16,9.64,39.91,1007.35,2040.01,3060.01,3109.99,3336.16,500.44,492.97,42.52,0000 0000 0000 0000 000000
2014-09-23 12:14:17,0.00,0.83,0.00,22.63,26.65,29.16,9.63,39.83,1007.35,2040.02,3060.00,3109.99,3336.17,500.28,493.19,42.56,0000 0000 0000 0000 000000
2014-09-23 12:19:18,-0.00,0.83,0.00,22.61,26.65,29.16,9.42,39.76,1007.35,2040.02,3060.00,3109.98,3336.12,499.72,492.60,42.60,0000 0000 0000 0000 000000
2014-09-23 12:24:19,0.01,0.83,0.00,22.61,26.64,29.15,9.46,39.84,1007.34,2040.03,3060.00,3109.97,3336.02,499.85,492.70,42.64,0000 0000 0000 0000 000000
2014-09-23 12:29:20,-0.00,0.83,0.00,22.62,26.65,29.15,9.37,39.86,1007.34,2040.00,3060.00,3109.95,3336.00,499.62,492.34,42.68,0000 0000 0000 0000 000000
2014-09-23 12:34:22,0.00,0.83,0.00,22.60,26.64,29.15,9.46,39.82,1007.34,2040.02,3059.98,3109.94,3336.01,499.93,492.75,42.73,0000 0000 0000 0000 000000
2014-09-23 12:39:23,0.00,0.83,0.00,22.58,26.64,29.13,9.56,39.90,1007.34,2040.01,3059.96,3109.79,3336.00,499.96,492.86,42.77,0000 0000 0000 0000 000000
2014-09-23 12:44:24,-0.00,0.83,0.00,22.59,26.65,29.15,9.60,39.75,1007.34,2040.02,3059.94,3109.75,3336.00,500.42,493.13,42.81,0000 0000 0000 0000 000000
2014-09-23 12:49:25,0.00,0.83,0.00,22.59,26.65,29.16,9.44,39.77,1007.32,2040.04,3059.95,3109.79,3336.00,499.81,492.83,42.85,0000 0000 0000 0000 000000
2014-09-23 12:54:26,0.01,0.83,0.00,22.59,26.65,29.16,9.55,39.92,1007.31,2040.02,3059.80,3109.46,3336.00,500.51,493.36,42.89,0000 0000 0000 0000 000000
2014-09-23 12:59:28,0.01,0.83,0.00,22.60,26.65,29.15,9.39,39.83,1007.31,2040.01,3059.58,3109.16,3335.99,500.04,492.96,42.93,0000 0000 0000 0000 000000